Regional Weather Roundup
Issued by NWS

Home | Current Version | Previous Version | Text Only | Print | Product List | Glossary Off
Versions: 1 2 3 4 5 6 7 8 9 10 11 12 13 14 15 16 17 18 19 20 21 22 23 24 25 26 27 28 29 30 31 32 33 34 35 36 37 38 39 40 41 42 43 44 45 46 47 48 49 50

846
ASUS43 KOAX 250702
RWRNE

WEATHER ROUNDUP FOR NEBRASKA
NATIONAL WEATHER SERVICE OMAHA NE
200 AM CDT WED MAY 25 2016

NOTES: SATELLITE DATA IS BEING USED TO AUGMENT CLOUD COVER ABOVE
       12000 FEET.
       "FAIR" INDICATES FEW OR NO CLOUDS BELOW 12,000 FEET WITH NO
       SIGNIFICANT WEATHER AND/OR OBSTRUCTIONS TO VISIBILITY.

  * THESE STATIONS DO NOT REPORT WEATHER SUCH AS RAIN...SNOW OR FOG.

NEZ001>004-019>022-054>056-250800-
NEBRASKA PANHANDLE

CITY           SKY/WX    TMP DP  RH WIND       PRES   REMARKS
SCOTTSBLUFF    CLOUDY    49  45  86 CALM      29.90R
ALLIANCE       CLOUDY    51  50  96 E7        29.85R
CHADRON        LGT RAIN  52 N/A N/A N6        29.89R
SIDNEY         CLOUDY    53  50  89 E12       29.82F
$$

NEZ057>060-069>072-079>082-250800-
SOUTHWEST NEBRASKA

CITY           SKY/WX    TMP DP  RH WIND       PRES   REMARKS
NORTH PLATTE   CLOUDY    57  53  86 NE6       29.80S THUNDER
IMPERIAL       CLOUDY    57  53  86 NW12      29.83R
LEXINGTON      MOCLDY    59  56  88 SE9       29.79S
MCCOOK         TSTM      59  55  87 NE7       29.79F FOG
$$

NEZ005>010-023>029-035>040-094-250800-
NORTH CENTRAL NEBRASKA

CITY           SKY/WX    TMP DP  RH WIND       PRES   REMARKS
VALENTINE      CLOUDY    56  32  40 NE8       29.77F
AINSWORTH      LGT RAIN  56  55  97 NE13      29.78F
BROKEN BOW     CLOUDY    58  55  90 N15       29.80S
ORD            TSTM      58  56  93 NW13      29.86F
$$

NEZ041-046>049-061>064-073>077-083>087-250800-
SOUTH CENTRAL NEBRASKA

CITY           SKY/WX    TMP DP  RH WIND       PRES   REMARKS
GRAND ISLAND   CLOUDY    68  63  84 W5        29.81R
HASTINGS       MOCLDY    67  52  58 W16       29.84R
KEARNEY *      CLOUDY    63  54  72 N14       29.81F
YORK           CLOUDY    64  57  77 SE23G30   29.73R
$$

NEZ011>018-030>034-042>045-250800-
NORTHEAST NEBRASKA

CITY           SKY/WX    TMP DP  RH WIND       PRES   REMARKS
NORFOLK        CLOUDY    70  61  73 SE16G22   29.79F
ALBION         CLOUDY    69  60  72 SE7       29.81R
FREMONT        RAIN      65  60  85 S12G22    29.84S
TEKAMAH        CLOUDY    69  63  81 S9        29.82F
$$

NEZ050>053-065>068-078-088>093-250800-
SOUTHEAST NEBRASKA

CITY           SKY/WX    TMP DP  RH WIND       PRES   REMARKS
LINCOLN        LGT RAIN  63  59  87 S17       29.88R
OMAHA EPPLEY   TSTM      69  64  84 W33G49    29.88R VSB 1
FALLS CITY     LGT RAIN  66  61  84 NW5       29.86F
$$

NEZ044-045-051>053-067-250800-
OMAHA AREA

CITY           SKY/WX    TMP DP  RH WIND       PRES   REMARKS
OMAHA EPPLEY   TSTM      69  64  84 W33G49    29.88R VSB 1
FREMONT        RAIN      65  60  85 S12G22    29.84S
OFFUTT AFB     TSTM      70  70 100 W12       29.86R FOG
$$




USA.gov is the U.S. government's official web portal to all federal, state and local government web resources and services.